NOAA 16 DEB, 41219

Orbit data source: Space-Track

NOAA 16 DEB, 41219 is space debris in SSO originally from a launch on Thu, 21 Sep 2000 UTC launched from the Air Force Western Test Range (AFWTR). Debris objects in space refer to the collection of defunct objects orbiting the Earth. Examples of debris include non-operational satellites, rocket bodies, and fragments generated from explosions, collisions, or faulty payload assembly.

Loading next visibility...
Identifier
41219, 2000-055DY
Orbit
SSO
Country
Flag of USUS
Related business
Manufacturer
Unknown
Mission
Spacecraft
Bus & Motor
Unknown
Mass
Unknown
Launch date (UTC)
2000-09-21 (25 years ago)
Launch vehicle
Unknown
Launch site
Air Force Western Test Range (AFWTR)
Object type
Payload
Rocket body
Debris
Shape & HBR
Unknown shape, 0.1 m
Radar Cross Section
Small (<0.1 m²)

Expand to show TLE details & history
Last TLE update: 2 days ago

TLE from 2 days ago
0 NOAA 16 DEB
1 41219U 00055DY  26034.58303770  .00003899  00000-0  15954-2 0  9990
2 41219  98.6252  90.3987 0009246 179.9902 180.1280 14.27764491524988
Epoch: 2026-02-03T13:59Z
TLE epoch observation values (Epoch: 2026-02-03T13:59:34.457Z)
Latitude
-0.00009°
Longitude
106.74325°
Altitude
808.778 km
Speed
7.446 km/s
True Right ascension
06h 01m 35s
True Declination
0° 00' 00"
Sunlit
Object was in full shadow at epoch
Visualization orbit readout
Latitude
Unknown
Longitude
Unknown
Altitude
Unknown
Speed
Unknown
Apparent Right ascension
Unknown
Apparent Declination
Unknown
Sunlit
N/A
Visualization observer readout
Local Sidereal Time
14:07:24
Azimuth
Unknown
Elevation
Unknown
Doppler factor
Unknown
Orbital elements
Apogee altitude
802.991 km
Perigee altitude
789.724 km
Semi-major axis
7,174.494 km
Eccentricity
0.00092
Inclination
98.6252°
RAAN
90.3987°
Arg. of periapsis
179.9902°
True anomaly
180.12776°
Mean anomaly
180.128°
Eccentric anomaly
180.12788°
Mean motion
3.57155 °/min
Orbital period
100.8 mins
BSTAR
0.0015954
Loading maneuver chart data...
Computing Atmospheric mass density...
Loading historical data...
Loading historical data...
Loading historical data...
Loading historical data...
Loading historical data...
Loading historical data...
Loading historical data...

Documentation

Showing up to 5 results
|